Airfield :
LOGIN :

Register | Disclaimer

   EN    FR    IT 

 










Legend :    VFR   Marginal VFR   IFR   Intensive IFR   Very Intensive IFR
Visi :
Ceiling :
>= 8 km
>= 3000ft
5 to 8 km
1000 to 3000 ft
1500m to 5 km
500 to 1000 ft
800 to 1500m
200 to 500 ft
< 800m
< 200 ft
Symbols :   Thunderstorms  Fog  Heavy snow  Heavy precipitations  Wind > 20 kt
SIGMETs :     Misc.  Thunderstorms  Icing  Turbulence  Mountain Waves  Volcanic Ashes







- Airport Elevation : 302 ft
- IATA code : CGN


EDDK - Cologne Bonn

CURRENT METAR :
  • 160150Z 07002KT 9999 MIFG NSC 14/13 Q1019 NOSIG

EXPIRED METARs :
  • 160120Z VRB01KT CAVOK 15/14 Q1019 NOSIG
  • 160050Z VRB01KT CAVOK 14/13 Q1019 NOSIG
  • 160020Z 05001KT CAVOK 15/13 Q1019 NOSIG
  • 152350Z VRB01KT CAVOK 16/14 Q1019 NOSIG
  • 152320Z VRB01KT CAVOK 16/14 Q1019 NOSIG

TAF TAF EDDK
Valid from the 16 at 00:00 until the 17 at 06:00 UTC


152300Z 1600/1706 12003KT CAVOK
BECMG 1607/1610 18005KT
BECMG 1617/1619 VRB02KT
BECMG 1621/1624 33005KT
No reported NOTAMs for that airfield.



MET'MAP, your aeronautical weather chart ! - Copyright ORBIFLY December 2007 - Disclaimer

ORBIFLY MET'MAP TEAM :

Programming & Development : Alexandra Zaïnal
Concept & Development : Baudouin d'Aumeries
Co-Development & Prog : Marc-Olivier Méhu
Technical & hardware support : Manuel Goepfert

Contact : metmap@orbifly.com




SOURCES & CREDITS :

   NOAA